Information on these data can be found in provided Readme document
Contact Info: Zachary Fasnacht (zachary.fasnacht@ssaihq.com); Nickolay Krotkov (nickolay.a.krotkov@nasa.gov); Lok Lamsal (lok.lamsal@nasa.gov)

FillValue: -999.
ScaleFactor: 1e15
Units: molecules/cm^2

Date(yyyy-mm-dd),City,Country,LonCenter,LatCenter,BoundingCoordinates,Median,Q1,Q3,Mean,Baseline_Median,Baseline_Q1,Baseline_Q3,Baseline_Mean,NumGoodSamples,NumTotalSamples
2015-01-01,Minsk,Belarus,27.559,53.9006,[27.059 53.4006 28.059 54.4006],0.201,-1.0,2.657,1.028,0.665,-0.177,2.119,1.136,99.0,669.0
2015-01-02,Minsk,Belarus,27.559,53.9006,[27.059 53.4006 28.059 54.4006],0.096,-1.0,2.207,0.991,0.738,-0.045,2.0,1.14,93.0,672.0
2015-01-03,Minsk,Belarus,27.559,53.9006,[27.059 53.4006 28.059 54.4006],0.482,-0.157,3.78,1.982,0.95,0.318,2.44,1.449,76.0,666.0
2015-01-04,Minsk,Belarus,27.559,53.9006,[27.059 53.4006 28.059 54.4006],0.047,-0.845,0.482,0.405,0.871,0.216,1.559,1.029,40.0,668.0
2015-01-05,Minsk,Belarus,27.559,53.9006,[27.059 53.4006 28.059 54.4006],0.201,-0.845,0.482,0.63,0.793,0.177,1.31,0.958,31.0,658.0
2015-01-06,Minsk,Belarus,27.559,53.9006,[27.059 53.4006 28.059 54.4006],0.047,-0.845,0.482,0.625,0.729,0.204,1.352,0.967,26.0,665.0
2015-01-07,Minsk,Belarus,27.559,53.9006,[27.059 53.4006 28.059 54.4006],0.047,-0.845,0.482,0.625,0.734,0.197,1.336,0.963,26.0,668.0
2015-01-08,Minsk,Belarus,27.559,53.9006,[27.059 53.4006 28.059 54.4006],0.047,-0.845,0.482,0.625,0.718,0.101,1.29,0.911,26.0,673.0
2015-01-09,Minsk,Belarus,27.559,53.9006,[27.059 53.4006 28.059 54.4006],0.047,-0.845,0.482,0.625,0.768,0.183,1.304,0.944,26.0,667.0
2015-01-10,Minsk,Belarus,27.559,53.9006,[27.059 53.4006 28.059 54.4006],0.047,-0.845,0.482,0.625,0.861,0.258,1.387,1.014,26.0,617.0
2015-01-11,Minsk,Belarus,27.559,53.9006,[27.059 53.4006 28.059 54.4006],0.047,-0.845,0.482,0.625,0.867,0.32,1.388,1.016,26.0,628.0
2015-01-12,Minsk,Belarus,27.559,53.9006,[27.059 53.4006 28.059 54.4006],0.047,-0.845,0.482,0.625,0.875,0.317,1.383,1.014,26.0,621.0
2015-01-13,Minsk,Belarus,27.559,53.9006,[27.059 53.4006 28.059 54.4006],0.047,-0.845,0.482,0.625,0.826,0.251,1.341,0.979,26.0,629.0
2015-01-14,Minsk,Belarus,27.559,53.9006,[27.059 53.4006 28.059 54.4006],4.763,0.096,6.009,3.514,1.078,0.403,1.55,1.088,16.0,621.0
2015-01-15,Minsk,Belarus,27.559,53.9006,[27.059 53.4006 28.059 54.4006],-999.0,-999.0,-999.0,-999.0,1.081,0.617,1.497,1.139,-999.0,-999.0
2015-01-16,Minsk,Belarus,27.559,53.9006,[27.059 53.4006 28.059 54.4006],-999.0,-999.0,-999.0,-999.0,1.06,0.577,1.637,1.257,-999.0,-999.0
2015-01-17,Minsk,Belarus,27.559,53.9006,[27.059 53.4006 28.059 54.4006],-999.0,-999.0,-999.0,-999.0,1.177,0.618,1.7,1.303,-999.0,-999.0
2015-01-18,Minsk,Belarus,27.559,53.9006,[27.059 53.4006 28.059 54.4006],-999.0,-999.0,-999.0,-999.0,1.151,0.577,1.711,1.264,-999.0,-999.0
2015-01-19,Minsk,Belarus,27.559,53.9006,[27.059 53.4006 28.059 54.4006],-999.0,-999.0,-999.0,-999.0,1.153,0.577,1.708,1.27,-999.0,-999.0
2015-01-20,Minsk,Belarus,27.559,53.9006,[27.059 53.4006 28.059 54.4006],-999.0,-999.0,-999.0,-999.0,1.071,0.559,1.669,1.224,-999.0,-999.0
2015-01-21,Minsk,Belarus,27.559,53.9006,[27.059 53.4006 28.059 54.4006],0.758,0.758,1.131,1.226,1.084,0.577,1.648,1.231,4.0,621.0
2015-01-22,Minsk,Belarus,27.559,53.9006,[27.059 53.4006 28.059 54.4006],1.131,1.045,1.418,1.241,1.089,0.589,1.648,1.231,8.0,628.0
2015-01-23,Minsk,Belarus,27.559,53.9006,[27.059 53.4006 28.059 54.4006],1.131,1.045,1.418,1.241,1.1,0.593,1.643,1.235,8.0,629.0
2015-01-24,Minsk,Belarus,27.559,53.9006,[27.059 53.4006 28.059 54.4006],1.131,1.045,1.418,1.241,1.1,0.574,1.703,1.218,8.0,631.0
2015-01-25,Minsk,Belarus,27.559,53.9006,[27.059 53.4006 28.059 54.4006],1.131,1.045,1.418,1.279,1.005,0.569,1.614,1.144,13.0,672.0
2015-01-26,Minsk,Belarus,27.559,53.9006,[27.059 53.4006 28.059 54.4006],1.418,1.054,6.752,3.289,1.027,0.578,1.968,1.296,22.0,667.0
2015-01-27,Minsk,Belarus,27.559,53.9006,[27.059 53.4006 28.059 54.4006],1.418,1.054,6.752,3.289,1.031,0.578,1.99,1.303,22.0,677.0
2015-01-28,Minsk,Belarus,27.559,53.9006,[27.059 53.4006 28.059 54.4006],1.131,0.758,4.217,2.619,1.077,0.595,1.928,1.339,30.0,673.0
2015-01-29,Minsk,Belarus,27.559,53.9006,[27.059 53.4006 28.059 54.4006],1.036,0.717,1.418,1.815,1.096,0.611,1.703,1.306,41.0,679.0
2015-01-30,Minsk,Belarus,27.559,53.9006,[27.059 53.4006 28.059 54.4006],0.812,0.641,1.268,1.49,0.993,0.603,1.691,1.274,62.0,675.0
2015-01-31,Minsk,Belarus,27.559,53.9006,[27.059 53.4006 28.059 54.4006],0.812,0.641,1.268,1.49,1.031,0.597,1.53,1.326,62.0,681.0
2015-02-01,Minsk,Belarus,27.559,53.9006,[27.059 53.4006 28.059 54.4006],0.812,0.592,1.268,1.603,0.955,0.587,1.49,1.355,67.0,687.0
2015-02-02,Minsk,Belarus,27.559,53.9006,[27.059 53.4006 28.059 54.4006],0.812,0.592,1.268,1.603,1.043,0.634,1.752,1.539,67.0,681.0
2015-02-03,Minsk,Belarus,27.559,53.9006,[27.059 53.4006 28.059 54.4006],0.795,0.592,1.268,1.497,0.981,0.582,1.678,1.452,82.0,683.0
2015-02-04,Minsk,Belarus,27.559,53.9006,[27.059 53.4006 28.059 54.4006],0.947,0.684,1.268,1.41,1.053,0.649,1.706,1.447,115.0,678.0
2015-02-05,Minsk,Belarus,27.559,53.9006,[27.059 53.4006 28.059 54.4006],0.887,0.639,1.234,1.319,0.948,0.613,1.57,1.365,130.0,679.0
2015-02-06,Minsk,Belarus,27.559,53.9006,[27.059 53.4006 28.059 54.4006],0.795,0.547,1.107,1.232,0.934,0.585,1.523,1.347,150.0,676.0
2015-02-07,Minsk,Belarus,27.559,53.9006,[27.059 53.4006 28.059 54.4006],0.795,0.535,1.087,1.163,0.961,0.626,1.576,1.357,158.0,684.0
2015-02-08,Minsk,Belarus,27.559,53.9006,[27.059 53.4006 28.059 54.4006],0.759,0.514,1.067,1.126,0.933,0.622,1.624,1.353,174.0,686.0
2015-02-09,Minsk,Belarus,27.559,53.9006,[27.059 53.4006 28.059 54.4006],0.747,0.514,1.046,1.122,0.959,0.617,1.625,1.349,172.0,689.0
2015-02-10,Minsk,Belarus,27.559,53.9006,[27.059 53.4006 28.059 54.4006],0.747,0.51,1.046,0.967,0.965,0.623,1.616,1.278,179.0,681.0
2015-02-11,Minsk,Belarus,27.559,53.9006,[27.059 53.4006 28.059 54.4006],0.747,0.51,1.046,0.967,0.936,0.561,1.595,1.25,179.0,629.0
2015-02-12,Minsk,Belarus,27.559,53.9006,[27.059 53.4006 28.059 54.4006],0.753,0.483,1.046,0.978,0.892,0.517,1.584,1.239,171.0,637.0
2015-02-13,Minsk,Belarus,27.559,53.9006,[27.059 53.4006 28.059 54.4006],0.747,0.493,1.046,1.014,0.844,0.517,1.605,1.247,161.0,631.0
2015-02-14,Minsk,Belarus,27.559,53.9006,[27.059 53.4006 28.059 54.4006],0.759,0.51,1.087,1.039,0.841,0.508,1.634,1.26,140.0,633.0
2015-02-15,Minsk,Belarus,27.559,53.9006,[27.059 53.4006 28.059 54.4006],0.838,0.514,1.131,1.209,0.877,0.538,1.563,1.265,157.0,625.0
2015-02-16,Minsk,Belarus,27.559,53.9006,[27.059 53.4006 28.059 54.4006],0.806,0.515,1.087,1.088,0.887,0.537,1.569,1.239,158.0,632.0
2015-02-17,Minsk,Belarus,27.559,53.9006,[27.059 53.4006 28.059 54.4006],0.806,0.515,1.087,1.088,0.834,0.512,1.345,1.11,158.0,637.0
2015-02-18,Minsk,Belarus,27.559,53.9006,[27.059 53.4006 28.059 54.4006],0.806,0.515,0.996,1.102,0.888,0.542,1.383,1.156,143.0,629.0
2015-02-19,Minsk,Belarus,27.559,53.9006,[27.059 53.4006 28.059 54.4006],0.673,0.482,0.956,1.091,0.896,0.491,1.383,1.153,110.0,627.0
2015-02-20,Minsk,Belarus,27.559,53.9006,[27.059 53.4006 28.059 54.4006],0.673,0.481,0.986,1.17,0.927,0.474,1.552,1.198,91.0,622.0
2015-02-21,Minsk,Belarus,27.559,53.9006,[27.059 53.4006 28.059 54.4006],0.753,0.417,0.99,1.321,0.907,0.446,1.571,1.208,67.0,622.0
2015-02-22,Minsk,Belarus,27.559,53.9006,[27.059 53.4006 28.059 54.4006],0.806,0.493,2.067,1.582,0.86,0.432,1.736,1.192,59.0,618.0
2015-02-23,Minsk,Belarus,27.559,53.9006,[27.059 53.4006 28.059 54.4006],0.873,0.541,2.551,1.841,0.957,0.468,1.809,1.238,43.0,625.0
2015-02-24,Minsk,Belarus,27.559,53.9006,[27.059 53.4006 28.059 54.4006],0.873,0.541,2.551,1.848,1.052,0.494,1.856,1.293,40.0,626.0
2015-02-25,Minsk,Belarus,27.559,53.9006,[27.059 53.4006 28.059 54.4006],0.846,0.673,2.23,1.807,1.072,0.472,1.937,1.353,27.0,629.0
2015-02-26,Minsk,Belarus,27.559,53.9006,[27.059 53.4006 28.059 54.4006],0.846,0.673,2.23,1.807,1.155,0.573,1.942,1.425,27.0,670.0
2015-02-27,Minsk,Belarus,27.559,53.9006,[27.059 53.4006 28.059 54.4006],0.986,0.673,2.279,1.859,1.128,0.593,1.819,1.375,32.0,667.0
2015-02-28,Minsk,Belarus,27.559,53.9006,[27.059 53.4006 28.059 54.4006],0.986,0.673,2.279,1.851,1.157,0.681,1.871,1.432,31.0,676.0
2015-03-01,Minsk,Belarus,27.559,53.9006,[27.059 53.4006 28.059 54.4006],0.986,0.673,2.279,1.851,1.149,0.678,1.84,1.436,31.0,672.0
2015-03-02,Minsk,Belarus,27.559,53.9006,[27.059 53.4006 28.059 54.4006],0.806,0.541,0.986,0.988,1.027,0.574,1.437,1.138,14.0,679.0
2015-03-03,Minsk,Belarus,27.559,53.9006,[27.059 53.4006 28.059 54.4006],2.509,1.757,3.914,2.868,1.291,0.793,1.898,1.415,38.0,671.0
2015-03-04,Minsk,Belarus,27.559,53.9006,[27.059 53.4006 28.059 54.4006],2.839,1.716,4.176,3.008,1.572,0.939,2.263,1.661,44.0,678.0
2015-03-05,Minsk,Belarus,27.559,53.9006,[27.059 53.4006 28.059 54.4006],2.675,1.648,4.04,2.87,1.57,0.859,2.274,1.661,45.0,684.0
2015-03-06,Minsk,Belarus,27.559,53.9006,[27.059 53.4006 28.059 54.4006],2.675,1.648,4.04,2.87,1.499,0.853,2.253,1.621,45.0,677.0
2015-03-07,Minsk,Belarus,27.559,53.9006,[27.059 53.4006 28.059 54.4006],2.675,1.648,4.04,2.87,1.491,0.877,2.323,1.66,45.0,690.0
2015-03-08,Minsk,Belarus,27.559,53.9006,[27.059 53.4006 28.059 54.4006],2.659,1.559,4.031,2.722,1.51,0.863,2.361,1.641,53.0,685.0
2015-03-09,Minsk,Belarus,27.559,53.9006,[27.059 53.4006 28.059 54.4006],3.186,1.757,4.546,3.366,1.836,1.019,2.713,2.029,71.0,685.0
2015-03-10,Minsk,Belarus,27.559,53.9006,[27.059 53.4006 28.059 54.4006],3.213,2.065,5.357,3.664,2.063,1.227,3.306,2.325,102.0,681.0
2015-03-11,Minsk,Belarus,27.559,53.9006,[27.059 53.4006 28.059 54.4006],3.914,2.279,5.65,4.03,2.361,1.316,3.489,2.547,116.0,689.0
2015-03-12,Minsk,Belarus,27.559,53.9006,[27.059 53.4006 28.059 54.4006],3.914,2.275,5.65,4.095,2.409,1.345,3.749,2.633,150.0,691.0
2015-03-13,Minsk,Belarus,27.559,53.9006,[27.059 53.4006 28.059 54.4006],3.914,2.275,5.65,4.095,2.426,1.348,3.756,2.629,150.0,691.0
2015-03-14,Minsk,Belarus,27.559,53.9006,[27.059 53.4006 28.059 54.4006],3.935,2.275,5.65,4.117,2.53,1.396,3.908,2.76,145.0,685.0
2015-03-15,Minsk,Belarus,27.559,53.9006,[27.059 53.4006 28.059 54.4006],3.935,2.275,5.65,4.117,2.444,1.329,3.765,2.647,145.0,634.0
2015-03-16,Minsk,Belarus,27.559,53.9006,[27.059 53.4006 28.059 54.4006],3.935,2.275,5.65,4.117,2.31,1.202,3.629,2.518,145.0,668.0
2015-03-17,Minsk,Belarus,27.559,53.9006,[27.059 53.4006 28.059 54.4006],3.736,2.131,5.409,3.947,2.353,1.332,3.656,2.592,177.0,661.0
2015-03-18,Minsk,Belarus,27.559,53.9006,[27.059 53.4006 28.059 54.4006],4.01,2.364,5.464,4.154,2.309,1.322,3.35,2.493,147.0,685.0
2015-03-19,Minsk,Belarus,27.559,53.9006,[27.059 53.4006 28.059 54.4006],3.912,2.364,5.65,4.223,2.238,1.25,3.508,2.49,151.0,672.0
2015-03-20,Minsk,Belarus,27.559,53.9006,[27.059 53.4006 28.059 54.4006],3.949,2.726,5.445,4.299,2.322,1.427,3.656,2.675,161.0,675.0
2015-03-21,Minsk,Belarus,27.559,53.9006,[27.059 53.4006 28.059 54.4006],3.949,2.726,5.445,4.299,2.3,1.352,3.659,2.696,161.0,682.0
2015-03-22,Minsk,Belarus,27.559,53.9006,[27.059 53.4006 28.059 54.4006],3.949,2.726,5.445,4.299,2.442,1.379,3.665,2.767,161.0,661.0
2015-03-23,Minsk,Belarus,27.559,53.9006,[27.059 53.4006 28.059 54.4006],4.01,2.804,5.445,4.377,2.41,1.394,3.617,2.725,153.0,660.0
2015-03-24,Minsk,Belarus,27.559,53.9006,[27.059 53.4006 28.059 54.4006],3.949,2.425,5.445,4.262,2.304,1.228,3.513,2.58,135.0,655.0
2015-03-25,Minsk,Belarus,27.559,53.9006,[27.059 53.4006 28.059 54.4006],3.912,2.983,5.129,4.225,2.177,1.299,3.263,2.461,104.0,659.0
2015-03-26,Minsk,Belarus,27.559,53.9006,[27.059 53.4006 28.059 54.4006],3.801,2.307,4.605,3.841,2.135,1.115,3.103,2.325,91.0,645.0
2015-03-27,Minsk,Belarus,27.559,53.9006,[27.059 53.4006 28.059 54.4006],3.801,2.307,4.261,3.603,2.07,1.099,2.949,2.192,54.0,652.0
2015-03-28,Minsk,Belarus,27.559,53.9006,[27.059 53.4006 28.059 54.4006],3.801,2.307,4.261,3.603,1.992,1.042,2.94,2.103,54.0,655.0
2015-03-29,Minsk,Belarus,27.559,53.9006,[27.059 53.4006 28.059 54.4006],3.801,2.307,4.261,3.603,2.111,1.113,3.015,2.186,54.0,653.0
2015-03-30,Minsk,Belarus,27.559,53.9006,[27.059 53.4006 28.059 54.4006],3.801,2.307,4.261,3.603,2.144,1.109,3.073,2.23,54.0,695.0
2015-03-31,Minsk,Belarus,27.559,53.9006,[27.059 53.4006 28.059 54.4006],3.801,2.307,4.085,3.523,2.174,1.14,3.082,2.24,67.0,664.0
2015-04-01,Minsk,Belarus,27.559,53.9006,[27.059 53.4006 28.059 54.4006],3.912,3.56,4.261,3.882,2.037,1.135,3.025,2.173,35.0,691.0
2015-04-02,Minsk,Belarus,27.559,53.9006,[27.059 53.4006 28.059 54.4006],2.752,1.774,3.949,2.839,2.005,1.03,3.084,2.146,68.0,666.0
2015-04-03,Minsk,Belarus,27.559,53.9006,[27.059 53.4006 28.059 54.4006],1.914,1.0,3.56,2.181,1.993,0.962,2.969,2.086,71.0,690.0
2015-04-04,Minsk,Belarus,27.559,53.9006,[27.059 53.4006 28.059 54.4006],1.185,0.344,1.953,1.215,1.876,0.878,2.765,1.919,90.0,702.0
2015-04-05,Minsk,Belarus,27.559,53.9006,[27.059 53.4006 28.059 54.4006],1.185,0.344,1.953,1.215,1.845,0.905,2.726,1.887,90.0,745.0
2015-04-06,Minsk,Belarus,27.559,53.9006,[27.059 53.4006 28.059 54.4006],1.185,0.344,1.953,1.212,1.812,0.913,2.64,1.836,93.0,752.0
2015-04-07,Minsk,Belarus,27.559,53.9006,[27.059 53.4006 28.059 54.4006],1.185,0.344,1.953,1.212,1.682,0.875,2.573,1.751,93.0,767.0
2015-04-08,Minsk,Belarus,27.559,53.9006,[27.059 53.4006 28.059 54.4006],1.185,0.344,1.953,1.212,1.747,0.877,2.597,1.768,93.0,782.0
2015-04-09,Minsk,Belarus,27.559,53.9006,[27.059 53.4006 28.059 54.4006],1.185,0.344,1.979,1.227,1.755,0.898,2.615,1.776,96.0,771.0
2015-04-10,Minsk,Belarus,27.559,53.9006,[27.059 53.4006 28.059 54.4006],1.185,0.344,1.979,1.233,1.761,0.902,2.612,1.786,95.0,786.0
2015-04-11,Minsk,Belarus,27.559,53.9006,[27.059 53.4006 28.059 54.4006],1.198,0.344,1.984,1.244,1.705,0.849,2.579,1.745,97.0,773.0
2015-04-12,Minsk,Belarus,27.559,53.9006,[27.059 53.4006 28.059 54.4006],1.198,0.344,1.984,1.244,1.699,0.87,2.645,1.78,97.0,779.0
2015-04-13,Minsk,Belarus,27.559,53.9006,[27.059 53.4006 28.059 54.4006],1.198,0.344,1.984,1.244,1.589,0.812,2.588,1.663,97.0,785.0
2015-04-14,Minsk,Belarus,27.559,53.9006,[27.059 53.4006 28.059 54.4006],1.198,0.344,1.984,1.244,1.577,0.802,2.47,1.617,97.0,785.0
2015-04-15,Minsk,Belarus,27.559,53.9006,[27.059 53.4006 28.059 54.4006],1.185,0.344,1.953,1.167,1.599,0.833,2.431,1.623,93.0,781.0
2015-04-16,Minsk,Belarus,27.559,53.9006,[27.059 53.4006 28.059 54.4006],1.185,0.344,1.953,1.167,1.593,0.801,2.422,1.644,93.0,714.0
2015-04-17,Minsk,Belarus,27.559,53.9006,[27.059 53.4006 28.059 54.4006],0.936,0.117,1.572,0.869,1.629,0.903,2.481,1.756,70.0,771.0
2015-04-18,Minsk,Belarus,27.559,53.9006,[27.059 53.4006 28.059 54.4006],0.98,-0.008,1.646,0.93,1.611,0.868,2.474,1.72,71.0,752.0
2015-04-19,Minsk,Belarus,27.559,53.9006,[27.059 53.4006 28.059 54.4006],0.98,-0.21,1.642,0.928,1.654,0.92,2.514,1.748,41.0,759.0
2015-04-20,Minsk,Belarus,27.559,53.9006,[27.059 53.4006 28.059 54.4006],1.114,0.145,1.835,1.217,1.631,0.909,2.528,1.769,51.0,713.0
2015-04-21,Minsk,Belarus,27.559,53.9006,[27.059 53.4006 28.059 54.4006],1.395,0.553,2.235,1.358,1.693,0.911,2.615,1.775,59.0,719.0
2015-04-22,Minsk,Belarus,27.559,53.9006,[27.059 53.4006 28.059 54.4006],1.395,0.553,2.235,1.358,1.759,1.057,2.693,1.87,59.0,703.0
2015-04-23,Minsk,Belarus,27.559,53.9006,[27.059 53.4006 28.059 54.4006],1.395,0.553,2.235,1.358,1.732,1.005,2.699,1.876,59.0,681.0
2015-04-24,Minsk,Belarus,27.559,53.9006,[27.059 53.4006 28.059 54.4006],1.322,0.119,2.063,1.2,1.712,0.891,2.623,1.824,63.0,686.0
2015-04-25,Minsk,Belarus,27.559,53.9006,[27.059 53.4006 28.059 54.4006],1.4,0.723,2.309,1.425,1.714,0.961,2.648,1.821,97.0,674.0
2015-04-26,Minsk,Belarus,27.559,53.9006,[27.059 53.4006 28.059 54.4006],1.578,0.567,2.309,1.417,1.733,0.964,2.59,1.801,95.0,686.0
2015-04-27,Minsk,Belarus,27.559,53.9006,[27.059 53.4006 28.059 54.4006],1.562,0.723,2.309,1.529,1.774,1.02,2.666,1.869,120.0,683.0
2015-04-28,Minsk,Belarus,27.559,53.9006,[27.059 53.4006 28.059 54.4006],1.578,0.875,2.235,1.551,1.784,1.046,2.652,1.868,129.0,690.0
2015-04-29,Minsk,Belarus,27.559,53.9006,[27.059 53.4006 28.059 54.4006],1.578,0.875,2.235,1.551,1.718,0.968,2.537,1.79,129.0,693.0
2015-04-30,Minsk,Belarus,27.559,53.9006,[27.059 53.4006 28.059 54.4006],1.578,0.93,2.309,1.586,1.671,0.881,2.528,1.758,120.0,694.0
2015-05-01,Minsk,Belarus,27.559,53.9006,[27.059 53.4006 28.059 54.4006],1.578,0.93,2.309,1.586,1.7,0.898,2.518,1.781,120.0,743.0
2015-05-02,Minsk,Belarus,27.559,53.9006,[27.059 53.4006 28.059 54.4006],1.624,0.992,2.334,1.669,1.585,0.837,2.446,1.691,119.0,692.0
2015-05-03,Minsk,Belarus,27.559,53.9006,[27.059 53.4006 28.059 54.4006],1.578,0.86,2.235,1.577,1.569,0.801,2.41,1.653,124.0,744.0
2015-05-04,Minsk,Belarus,27.559,53.9006,[27.059 53.4006 28.059 54.4006],1.624,0.96,2.309,1.625,1.548,0.82,2.416,1.651,133.0,719.0
2015-05-05,Minsk,Belarus,27.559,53.9006,[27.059 53.4006 28.059 54.4006],1.578,0.97,2.235,1.564,1.475,0.758,2.357,1.6,133.0,754.0
2015-05-06,Minsk,Belarus,27.559,53.9006,[27.059 53.4006 28.059 54.4006],1.519,0.885,2.167,1.552,1.5,0.787,2.313,1.609,122.0,778.0
2015-05-07,Minsk,Belarus,27.559,53.9006,[27.059 53.4006 28.059 54.4006],1.519,0.885,2.167,1.552,1.511,0.801,2.352,1.614,122.0,820.0
2015-05-08,Minsk,Belarus,27.559,53.9006,[27.059 53.4006 28.059 54.4006],1.584,0.975,2.235,1.653,1.513,0.868,2.268,1.614,136.0,827.0
2015-05-09,Minsk,Belarus,27.559,53.9006,[27.059 53.4006 28.059 54.4006],1.624,1.118,2.309,1.761,1.523,0.887,2.295,1.612,129.0,840.0
2015-05-10,Minsk,Belarus,27.559,53.9006,[27.059 53.4006 28.059 54.4006],1.561,1.036,2.167,1.692,1.49,0.881,2.217,1.588,95.0,881.0
2015-05-11,Minsk,Belarus,27.559,53.9006,[27.059 53.4006 28.059 54.4006],1.519,0.96,2.167,1.618,1.492,0.883,2.248,1.611,108.0,873.0
2015-05-12,Minsk,Belarus,27.559,53.9006,[27.059 53.4006 28.059 54.4006],1.406,0.693,2.025,1.333,1.451,0.793,2.142,1.485,101.0,920.0
2015-05-13,Minsk,Belarus,27.559,53.9006,[27.059 53.4006 28.059 54.4006],1.359,0.56,1.991,1.279,1.491,0.817,2.145,1.486,113.0,915.0
2015-05-14,Minsk,Belarus,27.559,53.9006,[27.059 53.4006 28.059 54.4006],1.423,0.693,1.978,1.33,1.515,0.789,2.152,1.513,120.0,976.0
2015-05-15,Minsk,Belarus,27.559,53.9006,[27.059 53.4006 28.059 54.4006],1.423,0.693,1.978,1.33,1.545,0.84,2.17,1.531,120.0,979.0
2015-05-16,Minsk,Belarus,27.559,53.9006,[27.059 53.4006 28.059 54.4006],1.423,0.693,1.978,1.321,1.457,0.787,2.138,1.487,123.0,1027.0
2015-05-17,Minsk,Belarus,27.559,53.9006,[27.059 53.4006 28.059 54.4006],1.423,0.56,1.97,1.287,1.529,0.876,2.24,1.572,118.0,1029.0
2015-05-18,Minsk,Belarus,27.559,53.9006,[27.059 53.4006 28.059 54.4006],1.429,0.824,2.025,1.393,1.551,0.92,2.319,1.605,99.0,936.0
2015-05-19,Minsk,Belarus,27.559,53.9006,[27.059 53.4006 28.059 54.4006],1.416,0.754,1.805,1.352,1.541,0.822,2.239,1.561,106.0,978.0
2015-05-20,Minsk,Belarus,27.559,53.9006,[27.059 53.4006 28.059 54.4006],1.406,0.524,1.802,1.318,1.562,0.802,2.31,1.577,100.0,973.0
2015-05-21,Minsk,Belarus,27.559,53.9006,[27.059 53.4006 28.059 54.4006],1.406,0.524,1.802,1.318,1.549,0.794,2.327,1.578,100.0,1000.0
2015-05-22,Minsk,Belarus,27.559,53.9006,[27.059 53.4006 28.059 54.4006],1.423,0.754,2.121,1.427,1.488,0.795,2.314,1.552,129.0,983.0
2015-05-23,Minsk,Belarus,27.559,53.9006,[27.059 53.4006 28.059 54.4006],1.204,0.516,1.771,1.197,1.415,0.659,2.198,1.45,125.0,1046.0
2015-05-24,Minsk,Belarus,27.559,53.9006,[27.059 53.4006 28.059 54.4006],1.371,0.56,2.074,1.35,1.454,0.625,2.241,1.455,150.0,1049.0
2015-05-25,Minsk,Belarus,27.559,53.9006,[27.059 53.4006 28.059 54.4006],1.371,0.56,2.074,1.35,1.432,0.591,2.235,1.428,150.0,1059.0
2015-05-26,Minsk,Belarus,27.559,53.9006,[27.059 53.4006 28.059 54.4006],1.371,0.608,2.076,1.368,1.369,0.576,2.2,1.392,156.0,1117.0
2015-05-27,Minsk,Belarus,27.559,53.9006,[27.059 53.4006 28.059 54.4006],1.282,0.577,2.121,1.38,1.311,0.558,2.04,1.348,172.0,1097.0
2015-05-28,Minsk,Belarus,27.559,53.9006,[27.059 53.4006 28.059 54.4006],1.163,0.504,2.074,1.272,1.133,0.406,1.933,1.219,169.0,1163.0
2015-05-29,Minsk,Belarus,27.559,53.9006,[27.059 53.4006 28.059 54.4006],0.894,0.436,1.979,1.146,1.049,0.376,1.9,1.161,193.0,1135.0
2015-05-30,Minsk,Belarus,27.559,53.9006,[27.059 53.4006 28.059 54.4006],0.849,0.404,1.865,1.074,0.996,0.317,1.809,1.111,207.0,1195.0
2015-05-31,Minsk,Belarus,27.559,53.9006,[27.059 53.4006 28.059 54.4006],0.894,0.412,1.827,1.105,0.955,0.303,1.807,1.089,241.0,1164.0
2015-06-01,Minsk,Belarus,27.559,53.9006,[27.059 53.4006 28.059 54.4006],0.931,0.412,1.865,1.123,0.805,0.164,1.598,0.917,240.0,1213.0
2015-06-02,Minsk,Belarus,27.559,53.9006,[27.059 53.4006 28.059 54.4006],0.971,0.413,1.865,1.151,0.772,0.161,1.553,0.896,257.0,1283.0
2015-06-03,Minsk,Belarus,27.559,53.9006,[27.059 53.4006 28.059 54.4006],0.872,0.366,1.819,1.088,0.72,0.099,1.503,0.855,252.0,1306.0
2015-06-04,Minsk,Belarus,27.559,53.9006,[27.059 53.4006 28.059 54.4006],0.826,0.263,1.733,1.012,0.702,0.079,1.461,0.823,266.0,1359.0
2015-06-05,Minsk,Belarus,27.559,53.9006,[27.059 53.4006 28.059 54.4006],0.766,0.229,1.614,0.934,0.595,0.028,1.364,0.713,301.0,1301.0
2015-06-06,Minsk,Belarus,27.559,53.9006,[27.059 53.4006 28.059 54.4006],0.652,0.159,1.426,0.842,0.493,-0.047,1.203,0.604,272.0,1307.0
2015-06-07,Minsk,Belarus,27.559,53.9006,[27.059 53.4006 28.059 54.4006],0.683,0.159,1.54,0.872,0.509,-0.064,1.265,0.6,276.0,1267.0
2015-06-08,Minsk,Belarus,27.559,53.9006,[27.059 53.4006 28.059 54.4006],0.634,0.102,1.329,0.753,0.453,-0.16,1.137,0.495,253.0,1289.0
2015-06-09,Minsk,Belarus,27.559,53.9006,[27.059 53.4006 28.059 54.4006],0.634,0.103,1.334,0.757,0.45,-0.146,1.113,0.495,278.0,1257.0
2015-06-10,Minsk,Belarus,27.559,53.9006,[27.059 53.4006 28.059 54.4006],0.583,0.102,1.282,0.722,0.43,-0.127,1.1,0.476,259.0,1251.0
2015-06-11,Minsk,Belarus,27.559,53.9006,[27.059 53.4006 28.059 54.4006],0.583,0.062,1.326,0.693,0.399,-0.147,1.039,0.434,230.0,1281.0
2015-06-12,Minsk,Belarus,27.559,53.9006,[27.059 53.4006 28.059 54.4006],0.57,0.024,1.329,0.703,0.4,-0.187,1.079,0.463,223.0,1242.0
2015-06-13,Minsk,Belarus,27.559,53.9006,[27.059 53.4006 28.059 54.4006],0.535,0.01,1.341,0.71,0.438,-0.218,1.121,0.451,192.0,1283.0
2015-06-14,Minsk,Belarus,27.559,53.9006,[27.059 53.4006 28.059 54.4006],0.574,0.01,1.465,0.75,0.409,-0.228,1.112,0.415,178.0,1251.0
2015-06-15,Minsk,Belarus,27.559,53.9006,[27.059 53.4006 28.059 54.4006],0.475,-0.065,1.289,0.603,0.389,-0.243,1.062,0.378,141.0,1290.0
2015-06-16,Minsk,Belarus,27.559,53.9006,[27.059 53.4006 28.059 54.4006],0.475,-0.065,1.289,0.605,0.463,-0.201,1.186,0.495,138.0,1255.0
2015-06-17,Minsk,Belarus,27.559,53.9006,[27.059 53.4006 28.059 54.4006],0.349,-0.087,0.952,0.441,0.412,-0.269,1.092,0.446,121.0,1282.0
2015-06-18,Minsk,Belarus,27.559,53.9006,[27.059 53.4006 28.059 54.4006],0.574,-0.022,1.36,0.631,0.549,-0.205,1.196,0.525,125.0,1225.0
2015-06-19,Minsk,Belarus,27.559,53.9006,[27.059 53.4006 28.059 54.4006],0.687,0.102,1.425,0.785,0.52,-0.182,1.198,0.525,107.0,1102.0
2015-06-20,Minsk,Belarus,27.559,53.9006,[27.059 53.4006 28.059 54.4006],1.188,0.327,1.536,0.978,0.54,-0.263,1.149,0.497,90.0,1161.0
2015-06-21,Minsk,Belarus,27.559,53.9006,[27.059 53.4006 28.059 54.4006],1.152,0.371,1.536,0.953,0.541,-0.25,1.18,0.515,94.0,1157.0
2015-06-22,Minsk,Belarus,27.559,53.9006,[27.059 53.4006 28.059 54.4006],0.916,0.315,1.465,0.874,0.533,-0.165,1.145,0.545,84.0,1201.0
2015-06-23,Minsk,Belarus,27.559,53.9006,[27.059 53.4006 28.059 54.4006],0.882,0.315,1.417,0.853,0.582,-0.148,1.166,0.587,86.0,1181.0
2015-06-24,Minsk,Belarus,27.559,53.9006,[27.059 53.4006 28.059 54.4006],0.919,0.315,1.417,0.867,0.55,-0.14,1.148,0.593,61.0,1224.0
2015-06-25,Minsk,Belarus,27.559,53.9006,[27.059 53.4006 28.059 54.4006],0.863,0.372,1.407,0.855,0.56,-0.104,1.171,0.624,80.0,1192.0
2015-06-26,Minsk,Belarus,27.559,53.9006,[27.059 53.4006 28.059 54.4006],0.863,0.372,1.407,0.841,0.597,-0.065,1.255,0.681,75.0,1182.0
2015-06-27,Minsk,Belarus,27.559,53.9006,[27.059 53.4006 28.059 54.4006],0.749,0.172,1.389,0.654,0.575,-0.087,1.233,0.656,82.0,1212.0
2015-06-28,Minsk,Belarus,27.559,53.9006,[27.059 53.4006 28.059 54.4006],0.416,-0.327,1.136,0.377,0.524,-0.14,1.224,0.632,116.0,1168.0